| time (UTC) | temp F | wind direction | speed MPH | gust MPH | rain 1hr in | rain 24hr in | rain mn in | humidity % | barometer mb |
| 20260504014003 | 56 | 209 | 3.0 | 8.0 | 0.00 | 0.00 | 0.00 | 51 | 1007.3 |
| 20260504013050 | 55 | 191 | 4.0 | 11.0 | 0.00 | 0.00 | 0.00 | 51 | 1008.2 |
| 20260504011549 | 55 | 234 | 2.0 | 11.0 | 0.00 | 0.00 | 0.00 | 54 | 1008.6 |
| 20260504010052 | 55 | 215 | 4.0 | 10.0 | 0.00 | 0.00 | 0.00 | 53 | 1008.5 |
| 20260504004550 | 54 | 221 | 4.0 | 11.0 | 0.00 | 0.00 | 0.00 | 55 | 1008.5 |
| 20260504003049 | 54 | 269 | 3.0 | 9.0 | 0.00 | 0.00 | 0.00 | 57 | 1008.9 |
| 20260504001544 | 54 | 215 | 1.0 | 7.0 | 0.00 | 0.00 | 0.00 | 55 | 1008.9 |
| 20260504000052 | 55 | 305 | 1.0 | 5.0 | 0.00 | 0.00 | 0.00 | 54 | 1008.7 |
| 20260503235004 | 56 | 341 | 2.0 | 6.0 | 0.00 | 0.00 | 0.00 | 52 | 1007.8 |
| 20260503234550 | 55 | 229 | 2.0 | 10.0 | 0.00 | 0.00 | 0.00 | 51 | 1008.6 |
| 20260503234003 | 56 | 200 | 2.0 | 7.0 | 0.00 | 0.00 | 0.00 | 51 | 1007.8 |
| 20260503233048 | 56 | 306 | 4.0 | 14.0 | 0.00 | 0.00 | 0.00 | 49 | 1008.7 |
| 20260503231546 | 57 | 202 | 5.0 | 16.0 | 0.00 | 0.00 | 0.00 | 45 | 1008.3 |
| 20260503224546 | 58 | 245 | 3.0 | 18.0 | 0.00 | 0.00 | 0.00 | 42 | 1008.0 |
| 20260503224003 | 59 | 279 | 6.0 | 18.0 | 0.00 | 0.00 | 0.00 | 41 | 1007.3 |
| 20260503223052 | 58 | 223 | 4.0 | 14.0 | 0.00 | 0.00 | 0.00 | 40 | 1008.0 |
| 20260503221553 | 58 | 307 | 3.0 | 10.0 | 0.00 | 0.00 | 0.00 | 42 | 1007.8 |
| 20260503220053 | 58 | 291 | 3.0 | 9.0 | 0.00 | 0.00 | 0.00 | 42 | 1008.1 |
| 20260503214554 | 58 | 312 | 5.0 | 13.0 | 0.00 | 0.01 | 0.00 | 40 | 1008.3 |
| 20260503213054 | 58 | 230 | 4.0 | 13.0 | 0.00 | 0.01 | 0.00 | 41 | 1008.2 |
| 20260503211613 | 59 | 269 | 5.0 | 11.0 | 0.00 | 0.01 | 0.00 | 38 | 1008.0 |
| 20260503210052 | 60 | 337 | 3.0 | 12.0 | 0.00 | 0.01 | 0.00 | 37 | 1007.9 |
| 20260503204552 | 59 | 236 | 5.0 | 12.0 | 0.00 | 0.01 | 0.00 | 35 | 1007.9 |
| 20260503203052 | 58 | 262 | 4.0 | 12.0 | 0.00 | 0.01 | 0.00 | 36 | 1008.2 |
| 20260503201547 | 59 | 239 | 3.0 | 12.0 | 0.00 | 0.01 | 0.00 | 36 | 1008.4 |
| 20260503200058 | 57 | 203 | 5.0 | 12.0 | 0.00 | 0.01 | 0.00 | 37 | 1008.6 |
| 20260503194554 | 59 | 217 | 5.0 | 11.0 | 0.00 | 0.01 | 0.00 | 38 | 1009.0 |
| 20260503193059 | 57 | 212 | 6.0 | 14.0 | 0.00 | 0.01 | 0.00 | 38 | 1009.2 |
| 20260503191549 | 57 | 193 | 4.0 | 13.0 | 0.00 | 0.01 | 0.00 | 37 | 1009.4 |
| 20260503190050 | 57 | 169 | 4.0 | 11.0 | 0.00 | 0.01 | 0.00 | 37 | 1009.6 |
| 20260503184554 | 56 | 252 | 8.0 | 19.0 | 0.00 | 0.01 | 0.00 | 38 | 1010.0 |
| 20260503183050 | 56 | 15 | 2.0 | 14.0 | 0.00 | 0.01 | 0.00 | 37 | 1010.1 |
| 20260503181608 | 55 | 0 | 5.0 | 12.0 | 0.00 | 0.01 | 0.00 | 39 | 1010.2 |
| 20260503180107 | 55 | 1 | 5.0 | 12.0 | 0.00 | 0.01 | 0.00 | 40 | 1010.3 |
| 20260503174556 | 56 | 307 | 5.0 | 11.0 | 0.00 | 0.01 | 0.00 | 40 | 1010.4 |
| 20260503174004 | 57 | 274 | 2.0 | 8.0 | 0.00 | 0.01 | 0.00 | 42 | 1009.9 |
| 20260503173057 | 57 | 200 | 4.0 | 10.0 | 0.00 | 0.01 | 0.00 | 41 | 1010.5 |
| 20260503171542 | 57 | 211 | 3.0 | 11.0 | 0.00 | 0.01 | 0.00 | 43 | 1010.7 |
| 20260503081549 | 34 | 0 | 0.0 | 1.0 | 0.00 | 0.01 | 0.00 | 87 | 1012.8 |
| 20260503072504 | 37 | 129 | 0.0 | 1.0 | 0.00 | 0.01 | 0.00 | 82 | 1012.2 |
| 20260503072003 | 37 | 116 | 0.0 | 1.0 | 0.00 | 0.01 | 0.00 | 82 | 1012.2 |
| 20260503071547 | 37 | 135 | 0.0 | 1.0 | 0.00 | 0.01 | 0.00 | 81 | 1012.9 |
| 20260503071504 | 38 | 132 | 1.0 | 1.0 | 0.00 | 0.01 | 0.00 | 81 | 1012.3 |
| 20260503071004 | 38 | 124 | 1.0 | 1.0 | 0.00 | 0.01 | 0.00 | 81 | 1012.3 |
| 20260503070503 | 38 | 146 | 0.0 | 1.0 | 0.00 | 0.01 | 0.00 | 81 | 1012.2 |
| 20260503055003 | 41 | 207 | 1.0 | 2.0 | 0.00 | 0.01 | 0.00 | 75 | 1012.5 |
| 20260503054549 | 41 | 0 | 1.0 | 2.0 | 0.00 | 0.01 | 0.00 | 74 | 1013.1 |
| 20260503054004 | 41 | 191 | 1.0 | 2.0 | 0.00 | 0.01 | 0.00 | 74 | 1012.5 |
| 20260503053503 | 41 | 191 | 1.0 | 2.0 | 0.00 | 0.01 | 0.00 | 74 | 1012.6 |
| 20260503053048 | 41 | 216 | 1.0 | 3.0 | 0.00 | 0.01 | 0.00 | 73 | 1013.2 |
| 20260503053003 | 41 | 200 | 2.0 | 3.0 | 0.00 | 0.01 | 0.00 | 74 | 1012.6 |
| 20260503052504 | 41 | 205 | 1.0 | 3.0 | 0.00 | 0.01 | 0.00 | 73 | 1012.6 |
| 20260503052003 | 42 | 210 | 1.0 | 3.0 | 0.00 | 0.01 | 0.00 | 73 | 1012.7 |
| 20260503051549 | 41 | 190 | 1.0 | 4.0 | 0.00 | 0.01 | 0.00 | 73 | 1013.3 |
| 20260503051004 | 42 | 205 | 1.0 | 3.0 | 0.00 | 0.01 | 0.00 | 72 | 1012.7 |
| 20260503050503 | 42 | 212 | 1.0 | 3.0 | 0.00 | 0.01 | 0.00 | 72 | 1012.8 |
| 20260503050053 | 41 | 223 | 1.0 | 3.0 | 0.00 | 0.01 | 0.00 | 72 | 1013.4 |
| 20260503050003 | 42 | 204 | 2.0 | 3.0 | 0.00 | 0.01 | 0.00 | 72 | 1012.9 |
| 20260503045504 | 42 | 202 | 2.0 | 3.0 | 0.00 | 0.01 | 0.00 | 72 | 1012.9 |
| 20260503044602 | 41 | 210 | 1.0 | 3.0 | 0.00 | 0.01 | 0.00 | 72 | 1013.5 |
| 20260503044503 | 42 | 224 | 1.0 | 3.0 | 0.00 | 0.01 | 0.00 | 72 | 1012.9 |
| 20260503043503 | 42 | 215 | 2.0 | 3.0 | 0.00 | 0.01 | 0.00 | 72 | 1013.0 |
| 20260503043054 | 42 | 201 | 1.0 | 3.0 | 0.00 | 0.01 | 0.00 | 71 | 1013.6 |
| 20260503043004 | 42 | 236 | 2.0 | 3.0 | 0.00 | 0.01 | 0.00 | 72 | 1013.0 |
| 20260503042503 | 42 | 204 | 1.0 | 3.0 | 0.00 | 0.01 | 0.00 | 72 | 1013.1 |
| 20260503042004 | 42 | 218 | 1.0 | 3.0 | 0.00 | 0.01 | 0.00 | 72 | 1013.0 |
| 20260503041550 | 42 | 206 | 1.0 | 4.0 | 0.00 | 0.01 | 0.00 | 71 | 1013.6 |
| 20260503041505 | 42 | 184 | 2.0 | 3.0 | 0.00 | 0.01 | 0.00 | 72 | 1013.0 |
| 20260503041004 | 42 | 203 | 2.0 | 3.0 | 0.00 | 0.01 | 0.00 | 71 | 1013.1 |
| 20260503040503 | 42 | 206 | 1.0 | 3.0 | 0.00 | 0.01 | 0.00 | 72 | 1013.1 |
| 20260503040057 | 42 | 216 | 1.0 | 4.0 | 0.00 | 0.01 | 0.00 | 71 | 1013.7 |
| 20260503040004 | 42 | 219 | 1.0 | 3.0 | 0.00 | 0.01 | 0.00 | 72 | 1013.1 |
| 20260503035503 | 42 | 232 | 2.0 | 3.0 | 0.00 | 0.01 | 0.01 | 71 | 1013.1 |
| 20260503035004 | 42 | 213 | 1.0 | 3.0 | 0.00 | 0.01 | 0.01 | 71 | 1013.1 |
| 20260503034559 | 42 | 223 | 1.0 | 4.0 | 0.00 | 0.01 | 0.01 | 71 | 1013.6 |
| 20260503034003 | 42 | 210 | 2.0 | 3.0 | 0.00 | 0.01 | 0.01 | 72 | 1013.2 |
| 20260503033504 | 42 | 226 | 1.0 | 3.0 | 0.00 | 0.01 | 0.01 | 71 | 1013.2 |
| 20260503033044 | 42 | 206 | 1.0 | 4.0 | 0.00 | 0.01 | 0.01 | 70 | 1013.7 |
| 20260503033004 | 42 | 224 | 2.0 | 3.0 | 0.00 | 0.01 | 0.01 | 71 | 1013.2 |
| 20260503031550 | 42 | 202 | 2.0 | 4.0 | 0.00 | 0.01 | 0.01 | 70 | 1013.8 |
| 20260503030503 | 42 | 246 | 2.0 | 3.0 | 0.00 | 0.01 | 0.01 | 72 | 1013.2 |
| 20260503030113 | 42 | 178 | 1.0 | 3.0 | 0.00 | 0.01 | 0.01 | 71 | 1013.8 |
| 20260503030004 | 42 | 210 | 2.0 | 3.0 | 0.00 | 0.01 | 0.01 | 72 | 1013.3 |
| 20260503025503 | 42 | 219 | 1.0 | 3.0 | 0.00 | 0.01 | 0.01 | 72 | 1013.3 |
| 20260503025003 | 42 | 206 | 2.0 | 3.0 | 0.00 | 0.01 | 0.01 | 72 | 1013.3 |
| 20260503024550 | 42 | 197 | 1.0 | 3.0 | 0.00 | 0.02 | 0.01 | 72 | 1013.9 |
| 20260503024504 | 42 | 216 | 1.0 | 3.0 | 0.00 | 0.01 | 0.01 | 72 | 1013.4 |
| 20260503024004 | 42 | 208 | 1.0 | 3.0 | 0.00 | 0.01 | 0.01 | 72 | 1013.4 |
| 20260503023503 | 42 | 199 | 2.0 | 3.0 | 0.00 | 0.01 | 0.01 | 71 | 1013.4 |
| 20260503023048 | 42 | 190 | 1.0 | 3.0 | 0.00 | 0.02 | 0.01 | 71 | 1014.0 |
| 20260503023004 | 42 | 194 | 1.0 | 3.0 | 0.00 | 0.01 | 0.01 | 72 | 1013.4 |
| 20260503022503 | 43 | 227 | 2.0 | 3.0 | 0.00 | 0.01 | 0.01 | 72 | 1013.5 |
| 20260503022003 | 43 | 228 | 1.0 | 2.0 | 0.00 | 0.01 | 0.01 | 71 | 1013.6 |
| 20260503021548 | 42 | 206 | 1.0 | 3.0 | 0.00 | 0.02 | 0.01 | 70 | 1014.1 |
| 20260503021003 | 43 | 206 | 1.0 | 2.0 | 0.00 | 0.02 | 0.01 | 71 | 1013.6 |
| 20260503020504 | 43 | 226 | 1.0 | 3.0 | 0.00 | 0.02 | 0.01 | 71 | 1013.6 |
| 20260503020045 | 42 | 206 | 1.0 | 4.0 | 0.00 | 0.02 | 0.01 | 70 | 1014.0 |
| 20260503020003 | 43 | 216 | 2.0 | 3.0 | 0.00 | 0.02 | 0.01 | 70 | 1013.6 |
| 20260503015504 | 43 | 221 | 1.0 | 3.0 | 0.00 | 0.02 | 0.01 | 70 | 1013.6 |
| 20260503014601 | 43 | 238 | 2.0 | 4.0 | 0.00 | 0.02 | 0.01 | 69 | 1014.0 |
| 20260503014503 | 43 | 231 | 2.0 | 3.0 | 0.00 | 0.02 | 0.01 | 70 | 1013.5 |